User: anonymous   Login
Location: Unspecified
(0.0000°N, 0.0000°E)
Time: 00:54:03
(UTC+00:00)
Language:

AO-7 - Orbit

View from above orbital plane
View from above orbital plane
View from above satellite
View from above satellite

Ground track
Ground track

The orbit is defined by the following mean orbital elements,

1 07530U          26145.50123808 +.00000000 +00000-0 +95166-4 0 00004
2 07530 101.9908 158.5111 0012321 172.6684 342.7297 12.53697657    05
Epoch (UTC): 25 May 2026 12:01:46
Eccentricity: 0.0012321
inclination: 101.9908°
perigee height: 1439 km
apogee height: 1459 km
right ascension of ascending node: 158.5111°
argument of perigee: 172.6684°
revolutions per day: 12.53697657
mean anomaly at epoch: 342.7297°

The dashed part of the orbit path shows where the satellite is in the earth's shadow,  

DLR